Regional Weather Roundup
Issued by NWS

Home | Current Version | Previous Version | Graphics & Text | Print | Product List | Glossary On
Versions: 1 2 3 4 5 6 7 8 9 10 11 12 13 14 15 16 17 18 19 20 21 22 23 24 25 26 27 28 29 30 31 32 33 34 35 36 37 38 39 40 41 42 43 44 45 46 47 48 49 50
000
ASUS43 KLSX 292010
RWRMO

WEATHER SUMMARY FOR MISSOURI
NATIONAL WEATHER SERVICE SPRINGFIELD MO
300 PM CDT FRI JUL 29 2016

NOTE: "FAIR" INDICATES FEW OR NO CLOUDS BELOW 12,000 FEET WITH NO
       SIGNIFICANT WEATHER AND/OR OBSTRUCTIONS TO VISIBILITY.
       CURRENT SKY AND/OR WEATHER CONDITIONS ARE NOT AVAILABLE FOR
       CHILLICOTHE AND FARMINGTON.

MOZ001>031-035>038-043-044-053-054-292100-
...NORTHERN AND WESTERN MISSOURI...

CITY           SKY/WX    TMP DP  RH WIND       PRES   REMARKS
KANSAS CTY INT PTSUNNY   84  63  49 N8        30.00S
KANSAS C DTWN  SUNNY     86  63  45 W9        29.97F
LEE`S SUMMIT   MOSUNNY   84  65  52 N8        29.99F
ST JOSEPH      MOSUNNY   81  63  54 N8        30.00F
CHILLICOTHE      N/A     85  63  47 NW8       29.99S
KIRKSVILLE     PTSUNNY   79  63  57 NW9       29.97F

$$
MOZ066>068-077>081-088>096-101>105-292100-
...SOUTHWEST MISSOURI...

CITY           SKY/WX    TMP DP  RH WIND       PRES   REMARKS
SPRINGFIELD    CLOUDY    86  68  54 W3        29.97F
JOPLIN         MOSUNNY   86  70  58 NW8       29.98F HX  90
BRANSON        CLOUDY    72  68  88 CALM      30.01S

$$
MOZ032>034-039>042-045>050-055>058-069>072-292100-
...CENTRAL MISSOURI...

CITY           SKY/WX    TMP DP  RH WIND       PRES   REMARKS
COLUMBIA       MOSUNNY   84  70  62 NW8       29.96S
JEFFERSON CITY CLOUDY    83  69  62 VRB5      29.94S
ROLLA          TSTM      74  71  91 SW12      29.96R FOG
SEDALIA        MOSUNNY   84  71  65 N10       29.98S
WHITEMAN AFB   MOSUNNY   83  69  63 N9        29.95F
OSAGE BEACH    CLOUDY    77  68  73 NE7       29.96F

$$
MOZ051-052-059>065-292100-
...EAST CENTRAL MISSOURI...

CITY           SKY/WX    TMP DP  RH WIND       PRES   REMARKS
ST LOUIS INTL  PTSUNNY   85  68  56 NW9       29.94F
SPIRIT OF STL  MOSUNNY   86  69  56 NW7       29.92F HX  90
ST CHARLES     MOSUNNY   83  70  64 VRB6      29.92F

$$
MOZ072>076-082>087-097>100-106>115-292100-
...SOUTH CENTRAL AND SOUTHEAST MISSOURI...

CITY           SKY/WX    TMP DP  RH WIND       PRES   REMARKS
CAPE GIRARDEAU SUNNY     86  74  67 CALM      29.90F HX  94
FARMINGTON     MOSUNNY   85  70  60 VRB3      29.94F
POPLAR BLUFF   MOSUNNY   86  75  69 VRB3      29.90F HX  95
WEST PLAINS    LGT RAIN  72  68  87 SW9G20    30.00S FOG

$$



USA.gov is the U.S. government's official web portal to all federal, state and local government web resources and services.